Location: Lynch Observatory
(39.9540°N, 75.1861°W)
Time: 14:43:09
(UTC-04:00)

VELOX 1 - Visible Passes

Search period start: 22 April 2024 00:00
Search period end: 02 May 2024 00:00
Orbit: 607 x 618 km, 98.3° (Epoch: 22 April)

Date Brightness Start Highest point End Pass type
(mag) Time Alt. Az. Time Alt. Az. Time Alt. Az.
22 Apr ? 20:58:58 10° NNE 21:03:19 79° ESE 21:07:37 10° S visible
23 Apr ? 21:13:58 10° N 21:18:17 71° WNW 21:22:34 10° SSW visible
24 Apr ? 21:29:02 10° N 21:33:12 48° WNW 21:37:20 10° SW visible
25 Apr ? 21:44:11 10° N 21:48:03 33° WNW 21:51:55 10° SW visible
26 Apr ? 20:23:19 10° NE 20:27:07 29° E 20:30:53 10° SSE visible
26 Apr ? 21:59:25 10° NNW 22:02:52 24° WNW 22:06:18 10° WSW visible
27 Apr ? 20:37:57 10° NNE 20:42:04 42° E 20:46:10 10° S visible
27 Apr ? 22:14:50 10° NNW 22:17:37 17° WNW 22:20:24 10° WSW visible
28 Apr ? 20:52:40 10° NNE 20:56:58 63° ESE 21:01:14 10° S visible
28 Apr ? 22:30:38 10° NW 22:32:19 12° WNW 22:33:59 10° W visible
29 Apr ? 21:07:28 10° NNE 21:11:49 87° W 21:16:07 10° SSW visible
30 Apr ? 21:22:21 10° N 21:26:37 59° WNW 21:30:51 10° SSW visible
01 May ? 21:37:18 10° N 21:41:21 40° WNW 21:45:23 10° SW visible
